START_TIME,STEP,MOV.,AL01,t_acc.,AL02,t_acc.,E37,t_acc.,H21,t_acc.
1979-07-29 21:00:33.380 ,0,0,0.,24.0,0.,24.0,0.,24.0,0.,24.0
1979-07-29 21:00:57.380 ,0,1,0.,24.0,0.,24.0,0.,24.0,0.,24.0
1979-07-29 21:01:21.380 ,0,0,0.,24.0,0.,24.0,0.,24.0,0.,24.0
1979-07-29 21:01:45.380 ,1,1,0.,24.0,0.,24.0,1.,24.0,0.,24.0
1979-07-29 21:02:09.380 ,1,0,0.,24.0,0.,24.0,3.,24.0,0.,24.0
1979-07-29 21:02:33.380 ,2,1,1.,24.0,0.,24.0,1.,24.0,0.,24.0
1979-07-29 21:02:57.380 ,2,0,0.,24.0,0.,24.0,1.,24.0,0.,24.0
1979-07-29 21:03:21.380 ,3,1,0.,24.0,0.,24.0,1.,24.0,0.,24.0
1979-07-29 21:03:45.380 ,3,0,0.,24.0,0.,24.0,3.,24.0,0.,24.0
1979-07-29 21:04:09.380 ,4,1,0.,24.0,0.,24.0,2.,24.0,0.,24.0
1979-07-29 21:04:33.380 ,4,0,0.,24.0,0.,24.0,1.,24.0,0.,24.0
1979-07-29 21:04:57.380 ,5,1,0.,24.0,0.,24.0,3.,24.0,0.,24.0
1979-07-29 21:05:21.380 ,5,0,0.,24.0,0.,24.0,0.,24.0,0.,24.0
1979-07-29 21:05:45.380 ,6,1,0.,24.0,0.,24.0,3.,24.0,0.,24.0
1979-07-29 21:06:09.380 ,6,0,0.,24.0,0.,24.0,0.,24.0,0.,24.0
1979-07-29 21:06:33.380 ,7,0,6.,24.0,0.,24.0,0.,24.0,0.,24.0
1979-07-29 21:06:57.380 ,7,0,27.,24.0,1.,24.0,0.,24.0,0.,24.0
1979-07-29 21:07:21.380 ,5,1,18.,24.0,0.,24.0,0.,24.0,0.,24.0
1979-07-29 21:07:45.380 ,1,1,0.,24.0,0.,24.0,2.,24.0,0.,24.0
1979-07-29 21:08:09.380 ,2,1,0.,24.0,0.,24.0,1.,24.0,0.,24.0
1979-07-29 21:08:33.380 ,6,1,0.,24.0,0.,24.0,0.,24.0,0.,24.0
1979-07-29 21:08:57.380 ,5,1,14.,24.0,1.,24.0,0.,24.0,0.,24.0
1979-07-29 21:09:21.380 ,1,1,1.,24.0,0.,24.0,4.,24.0,0.,24.0
1979-07-29 21:09:45.380 ,2,1,0.,24.0,0.,24.0,0.,24.0,0.,24.0
1979-07-29 21:10:09.380 ,6,1,0.,24.0,0.,24.0,2.,24.0,0.,24.0
1979-07-29 21:10:33.380 ,5,1,18.,24.0,0.,24.0,1.,24.0,0.,24.0
1979-07-29 21:10:57.380 ,1,1,0.,24.0,0.,24.0,0.,24.0,0.,24.0
1979-07-29 21:11:21.380 ,2,1,0.,24.0,0.,24.0,1.,24.0,0.,24.0
1979-07-29 21:11:45.380 ,6,1,0.,24.0,0.,24.0,2.,24.0,0.,24.0
1979-07-29 21:12:09.380 ,5,1,8.,24.0,0.,24.0,0.,24.0,0.,24.0
1979-07-29 21:12:33.380 ,1,1,1.,24.0,0.,24.0,1.,24.0,0.,24.0
1979-07-29 21:12:57.380 ,2,1,0.,24.0,0.,24.0,0.,24.0,0.,24.0
1979-07-29 21:13:21.380 ,6,1,0.,24.0,0.,24.0,3.,24.0,0.,24.0
1979-07-29 21:13:45.380 ,5,1,22.,24.0,1.,24.0,1.,24.0,0.,24.0
1979-07-29 21:14:09.380 ,1,1,0.,24.0,0.,24.0,0.,24.0,0.,24.0
1979-07-29 21:14:33.380 ,2,1,0.,24.0,0.,24.0,0.,24.0,0.,24.0
1979-07-29 21:14:57.380 ,6,1,0.,24.0,0.,24.0,1.,24.0,0.,24.0
1979-07-29 21:15:21.380 ,5,1,14.,24.0,0.,24.0,1.,24.0,0.,24.0
1979-07-29 21:15:45.380 ,1,1,0.,24.0,0.,24.0,0.,24.0,0.,24.0
1979-07-29 21:16:09.380 ,2,1,0.,24.0,0.,24.0,3.,24.0,0.,24.0
1979-07-29 21:16:33.380 ,6,1,0.,24.0,0.,24.0,1.,24.0,0.,24.0
1979-07-29 21:16:57.380 ,5,1,9.,24.0,0.,24.0,1.,24.0,0.,24.0
1979-07-29 21:17:21.380 ,1,1,0.,24.0,0.,24.0,0.,24.0,0.,24.0
1979-07-29 21:17:45.380 ,0,0,0.,24.0,1.,24.0,0.,24.0,0.,24.0
1979-07-29 21:18:09.380 ,0,0,0.,24.0,1.,24.0,2.,24.0,0.,24.0
1979-07-29 21:18:33.380 ,5,1,17.,24.0,0.,24.0,1.,24.0,0.,24.0
1979-07-29 21:18:57.380 ,5,0,0.,24.0,0.,24.0,2.,24.0,0.,24.0
1979-07-29 21:19:21.380 ,4,1,1.,24.0,0.,24.0,1.,24.0,0.,24.0
1979-07-29 21:19:45.380 ,4,0,0.,24.0,0.,24.0,0.,24.0,0.,24.0
1979-07-29 21:20:09.380 ,3,1,0.,24.0,0.,24.0,0.,24.0,0.,24.0
1979-07-29 21:20:33.380 ,3,0,0.,24.0,0.,24.0,1.,24.0,0.,24.0
1979-07-29 21:20:57.380 ,2,1,0.,24.0,0.,24.0,1.,24.0,0.,24.0
1979-07-29 21:21:21.380 ,2,0,0.,24.0,1.,24.0,4.,24.0,0.,24.0
1979-07-29 21:21:45.380 ,1,1,0.,24.0,0.,24.0,0.,24.0,0.,24.0
1979-07-29 21:22:09.380 ,0,0,1.,24.0,0.,24.0,0.,24.0,0.,24.0
1979-07-29 21:22:57.380 ,0,0,0.,24.0,0.,24.0,0.,24.0,0.,24.0
1979-07-29 21:23:21.380 ,0,1,0.,24.0,0.,24.0,3.,24.0,0.,24.0
1979-07-29 21:23:45.380 ,0,0,0.,24.0,0.,24.0,1.,24.0,0.,24.0
1979-07-29 21:24:09.380 ,1,1,0.,24.0,0.,24.0,0.,24.0,0.,24.0
1979-07-29 21:24:33.380 ,1,0,1.,24.0,0.,24.0,1.,24.0,0.,24.0
1979-07-29 21:24:57.380 ,2,1,1.,24.0,0.,24.0,2.,24.0,0.,24.0
1979-07-29 21:25:21.380 ,2,0,1.,24.0,0.,24.0,0.,24.0,0.,24.0
1979-07-29 21:25:45.380 ,3,1,0.,24.0,0.,24.0,2.,24.0,0.,24.0
1979-07-29 21:26:09.380 ,3,0,0.,24.0,0.,24.0,0.,24.0,0.,24.0
1979-07-29 21:26:33.380 ,4,1,0.,24.0,1.,24.0,2.,24.0,0.,24.0
1979-07-29 21:26:57.380 ,4,0,0.,24.0,1.,24.0,0.,24.0,0.,24.0
1979-07-29 21:27:21.380 ,5,1,0.,24.0,0.,24.0,1.,24.0,0.,24.0
1979-07-29 21:27:45.380 ,5,0,0.,24.0,0.,24.0,1.,24.0,0.,24.0
1979-07-29 21:28:09.380 ,6,1,0.,24.0,0.,24.0,4.,24.0,0.,24.0
1979-07-29 21:28:33.380 ,6,0,0.,24.0,0.,24.0,1.,24.0,0.,24.0
1979-07-29 21:28:57.380 ,7,1,5.,24.0,0.,24.0,2.,24.0,0.,24.0
1979-07-29 21:29:21.380 ,7,0,30.,24.0,0.,24.0,1.,24.0,0.,24.0
1979-07-29 21:29:45.380 ,7,1,33.,24.0,0.,24.0,1.,24.0,0.,24.0
1979-07-29 21:30:09.380 ,7,0,34.,24.0,0.,24.0,1.,24.0,0.,24.0
1979-07-29 21:30:33.380 ,6,1,25.,24.0,0.,24.0,0.,24.0,0.,24.0
1979-07-29 21:30:57.380 ,6,0,0.,24.0,0.,24.0,2.,24.0,0.,24.0
1979-07-29 21:31:21.380 ,5,1,0.,24.0,0.,24.0,0.,24.0,0.,24.0
1979-07-29 21:31:45.380 ,5,0,0.,24.0,0.,24.0,1.,24.0,0.,24.0
1979-07-29 21:32:09.380 ,4,1,0.,24.0,0.,24.0,1.,24.0,0.,24.0
1979-07-29 21:32:33.380 ,4,0,0.,24.0,0.,24.0,1.,24.0,0.,24.0
1979-07-29 21:32:57.380 ,3,1,0.,24.0,0.,24.0,1.,24.0,0.,24.0
1979-07-29 21:33:21.380 ,3,0,0.,24.0,0.,24.0,0.,24.0,0.,24.0
1979-07-29 21:33:45.380 ,0,0,,0,,0,,0,,0
1979-07-29 21:34:09.380 ,0,0,0.,24.0,0.,24.0,0.,24.0,0.,24.0
1979-07-29 21:34:33.380 ,1,1,0.,24.0,0.,24.0,0.,24.0,0.,24.0
1979-07-29 21:34:57.380 ,1,0,0.,24.0,0.,24.0,0.,24.0,0.,24.0
1979-07-29 21:35:21.380 ,0,1,0.,24.0,0.,24.0,1.,24.0,0.,24.0
1979-07-29 21:35:45.380 ,0,0,0.,24.0,0.,24.0,1.,24.0,0.,24.0
1979-07-29 21:36:09.380 ,0,1,0.,24.0,0.,24.0,1.,24.0,0.,24.0
1979-07-29 21:36:33.380 ,0,0,0.,24.0,0.,24.0,1.,24.0,0.,24.0
1979-07-29 21:36:57.380 ,1,1,0.,24.0,0.,24.0,1.,24.0,0.,24.0
1979-07-29 21:37:21.380 ,1,0,1.,24.0,0.,24.0,0.,24.0,0.,24.0
1979-07-29 21:37:45.380 ,2,1,0.,24.0,0.,24.0,2.,24.0,0.,24.0
1979-07-29 21:38:09.380 ,2,0,0.,24.0,0.,24.0,1.,24.0,0.,24.0
1979-07-29 21:38:33.380 ,3,1,0.,24.0,0.,24.0,0.,24.0,0.,24.0
1979-07-29 21:38:57.380 ,3,0,0.,24.0,0.,24.0,0.,24.0,0.,24.0
1979-07-29 21:39:21.380 ,4,1,0.,24.0,0.,24.0,0.,24.0,0.,24.0
1979-07-29 21:39:45.380 ,4,0,0.,24.0,0.,24.0,0.,24.0,0.,24.0
1979-07-29 21:40:09.380 ,5,1,0.,24.0,0.,24.0,2.,24.0,0.,24.0
1979-07-29 21:40:33.380 ,5,0,0.,24.0,0.,24.0,0.,24.0,0.,24.0
1979-07-29 21:40:57.380 ,6,1,0.,24.0,0.,24.0,2.,24.0,0.,24.0
1979-07-29 21:41:21.380 ,6,0,0.,24.0,0.,24.0,0.,24.0,0.,24.0
1979-07-29 21:41:45.380 ,7,1,5.,24.0,0.,24.0,2.,24.0,0.,24.0
1979-07-29 21:42:09.380 ,7,0,39.,24.0,0.,24.0,2.,24.0,0.,24.0
1979-07-29 21:42:33.380 ,7,1,34.,24.0,0.,24.0,2.,24.0,0.,24.0
1979-07-29 21:42:57.380 ,7,0,34.,24.0,0.,24.0,3.,24.0,0.,24.0
1979-07-29 21:43:21.380 ,6,1,19.,24.0,0.,24.0,2.,24.0,0.,24.0
1979-07-29 21:43:45.380 ,6,0,0.,24.0,0.,24.0,1.,24.0,0.,24.0
1979-07-29 21:44:09.380 ,5,1,0.,24.0,0.,24.0,3.,24.0,0.,24.0
1979-07-29 21:44:33.380 ,5,0,0.,24.0,0.,24.0,3.,24.0,0.,24.0
1979-07-29 21:44:57.380 ,4,1,1.,24.0,0.,24.0,2.,24.0,0.,24.0
1979-07-29 21:45:21.380 ,4,0,0.,24.0,0.,24.0,0.,24.0,0.,24.0
1979-07-29 21:45:45.380 ,3,1,0.,24.0,0.,24.0,0.,24.0,0.,24.0
1979-07-29 21:46:09.380 ,3,0,0.,24.0,0.,24.0,1.,24.0,0.,24.0
1979-07-29 21:46:33.380 ,2,1,1.,24.0,0.,24.0,2.,24.0,0.,24.0
1979-07-29 21:46:57.380 ,2,0,0.,24.0,1.,24.0,2.,24.0,0.,24.0
1979-07-29 21:47:21.380 ,1,1,1.,24.0,0.,24.0,2.,24.0,0.,24.0
1979-07-29 21:47:45.380 ,1,0,0.,24.0,0.,24.0,0.,24.0,0.,24.0
1979-07-29 21:48:09.380 ,0,1,0.,24.0,0.,24.0,0.,24.0,0.,24.0
1979-07-29 21:48:33.380 ,0,0,0.,24.0,0.,24.0,0.,24.0,0.,24.0
1979-07-29 21:48:57.380 ,0,1,0.,24.0,0.,24.0,0.,24.0,0.,24.0
1979-07-29 21:49:21.380 ,0,0,1.,24.0,0.,24.0,2.,24.0,0.,24.0
1979-07-29 21:49:45.380 ,1,1,0.,24.0,0.,24.0,0.,24.0,0.,24.0
1979-07-29 21:50:09.380 ,1,0,1.,24.0,0.,24.0,0.,24.0,0.,24.0
1979-07-29 21:50:34.580 ,2,1,0.,24.0,0.,24.0,0.,24.0,0.,24.0
1979-07-29 21:50:57.380 ,2,0,0.,24.0,1.,24.0,0.,24.0,0.,24.0
1979-07-29 21:51:21.380 ,3,1,0.,24.0,0.,24.0,2.,24.0,0.,24.0
1979-07-29 21:51:45.380 ,3,0,0.,24.0,0.,24.0,3.,24.0,0.,24.0
1979-07-29 21:52:09.380 ,4,1,0.,24.0,0.,24.0,3.,24.0,0.,24.0
1979-07-29 21:52:33.380 ,4,0,0.,24.0,0.,24.0,1.,24.0,0.,24.0
1979-07-29 21:52:57.380 ,5,1,0.,24.0,0.,24.0,1.,24.0,0.,24.0
1979-07-29 21:53:21.380 ,5,0,0.,24.0,0.,24.0,2.,24.0,0.,24.0
1979-07-29 21:53:45.380 ,6,1,0.,24.0,0.,24.0,0.,24.0,0.,24.0
1979-07-29 21:54:09.380 ,6,0,0.,24.0,0.,24.0,0.,24.0,0.,24.0
1979-07-29 21:54:33.380 ,7,0,8.,24.0,0.,24.0,2.,24.0,0.,24.0
1979-07-29 21:54:57.380 ,7,0,34.,24.0,0.,24.0,0.,24.0,0.,24.0
1979-07-29 21:55:21.380 ,5,1,14.,24.0,0.,24.0,1.,24.0,0.,24.0
1979-07-29 21:55:45.380 ,1,1,0.,24.0,0.,24.0,0.,24.0,0.,24.0
1979-07-29 21:56:09.380 ,2,1,0.,24.0,0.,24.0,2.,24.0,0.,24.0
1979-07-29 21:56:33.380 ,6,1,0.,24.0,0.,24.0,2.,24.0,0.,24.0
1979-07-29 21:56:57.380 ,5,1,22.,24.0,0.,24.0,1.,24.0,0.,24.0
1979-07-29 21:57:21.380 ,1,1,0.,24.0,0.,24.0,1.,24.0,0.,24.0
1979-07-29 21:57:45.380 ,2,1,0.,24.0,0.,24.0,1.,24.0,0.,24.0
1979-07-29 21:58:09.380 ,6,1,0.,24.0,0.,24.0,3.,24.0,0.,24.0
1979-07-29 21:58:33.380 ,5,1,19.,24.0,0.,24.0,1.,24.0,0.,24.0
1979-07-29 21:58:57.380 ,1,1,0.,24.0,0.,24.0,2.,24.0,0.,24.0
1979-07-29 21:59:21.380 ,2,1,0.,24.0,0.,24.0,1.,24.0,0.,24.0
1979-07-29 21:59:45.380 ,6,1,0.,24.0,0.,24.0,0.,24.0,0.,24.0
1979-07-29 22:00:09.380 ,5,1,15.,24.0,0.,24.0,1.,24.0,0.,24.0
1979-07-29 22:00:33.380 ,1,1,0.,24.0,0.,24.0,0.,24.0,0.,24.0
1979-07-29 22:00:57.380 ,2,1,0.,24.0,0.,24.0,3.,24.0,0.,24.0
1979-07-29 22:01:21.380 ,6,1,0.,24.0,0.,24.0,2.,24.0,0.,24.0
1979-07-29 22:01:45.380 ,5,1,14.,24.0,0.,24.0,3.,24.0,0.,24.0
1979-07-29 22:02:09.380 ,1,1,0.,24.0,0.,24.0,0.,24.0,0.,24.0
1979-07-29 22:02:33.380 ,2,1,0.,24.0,0.,24.0,0.,24.0,0.,24.0
1979-07-29 22:02:57.380 ,6,1,0.,24.0,0.,24.0,1.,24.0,0.,24.0
1979-07-29 22:03:21.380 ,5,1,12.,24.0,0.,24.0,0.,24.0,0.,24.0
1979-07-29 22:03:45.380 ,1,1,0.,24.0,0.,24.0,3.,24.0,0.,24.0
1979-07-29 22:04:09.380 ,2,1,0.,24.0,1.,24.0,0.,24.0,0.,24.0
1979-07-29 22:04:33.380 ,6,1,0.,24.0,0.,24.0,1.,24.0,0.,24.0
1979-07-29 22:04:57.380 ,5,1,11.,24.0,0.,24.0,3.,24.0,0.,24.0
1979-07-29 22:05:21.380 ,1,1,0.,24.0,0.,24.0,1.,24.0,0.,24.0
1979-07-29 22:05:45.380 ,0,0,0.,24.0,0.,24.0,2.,24.0,0.,24.0
1979-07-29 22:06:09.380 ,0,0,0.,24.0,0.,24.0,2.,24.0,0.,24.0
1979-07-29 22:06:33.380 ,5,1,22.,24.0,1.,24.0,1.,24.0,0.,24.0
1979-07-29 22:06:57.380 ,5,0,0.,24.0,0.,24.0,2.,24.0,0.,24.0
1979-07-29 22:07:21.380 ,4,1,0.,24.0,0.,24.0,2.,24.0,0.,24.0
1979-07-29 22:07:45.380 ,4,0,0.,24.0,0.,24.0,2.,24.0,0.,24.0
1979-07-29 22:08:09.380 ,3,1,0.,24.0,0.,24.0,1.,24.0,0.,24.0
1979-07-29 22:08:33.380 ,3,0,1.,24.0,0.,24.0,0.,24.0,0.,24.0
1979-07-29 22:08:57.380 ,2,1,0.,24.0,0.,24.0,1.,24.0,0.,24.0
1979-07-29 22:09:21.380 ,2,0,0.,24.0,0.,24.0,0.,24.0,0.,24.0
1979-07-29 22:09:45.380 ,1,1,1.,24.0,0.,24.0,1.,24.0,0.,24.0
1979-07-29 22:10:09.380 ,1,0,0.,24.0,0.,24.0,1.,24.0,0.,24.0
1979-07-29 22:10:33.380 ,0,1,1.,24.0,0.,24.0,0.,24.0,0.,24.0
1979-07-29 22:10:57.380 ,0,0,0.,24.0,0.,24.0,0.,24.0,0.,24.0
1979-07-29 22:11:21.380 ,0,1,0.,24.0,0.,24.0,2.,24.0,0.,24.0
1979-07-29 22:11:45.380 ,0,0,0.,24.0,0.,24.0,3.,24.0,0.,24.0
1979-07-29 22:12:09.380 ,1,1,0.,24.0,0.,24.0,1.,24.0,0.,24.0
1979-07-29 22:12:33.380 ,1,0,0.,24.0,0.,24.0,0.,24.0,0.,24.0
1979-07-29 22:12:57.380 ,2,1,0.,24.0,0.,24.0,0.,24.0,0.,24.0
1979-07-29 22:13:21.380 ,2,0,1.,24.0,1.,24.0,1.,24.0,0.,24.0
1979-07-29 22:13:45.380 ,3,1,1.,24.0,0.,24.0,1.,24.0,0.,24.0
1979-07-29 22:14:09.380 ,3,0,0.,24.0,0.,24.0,1.,24.0,0.,24.0
1979-07-29 22:14:33.380 ,4,1,0.,24.0,0.,24.0,1.,24.0,0.,24.0
1979-07-29 22:14:57.380 ,4,0,0.,24.0,0.,24.0,0.,24.0,0.,24.0
1979-07-29 22:15:21.380 ,5,1,0.,24.0,0.,24.0,1.,24.0,0.,24.0
1979-07-29 22:15:45.380 ,5,0,0.,24.0,0.,24.0,1.,24.0,0.,24.0
1979-07-29 22:16:09.380 ,6,1,0.,24.0,0.,24.0,1.,24.0,0.,24.0
1979-07-29 22:16:33.380 ,6,0,1.,24.0,1.,24.0,1.,24.0,0.,24.0
1979-07-29 22:16:57.380 ,7,1,7.,24.0,0.,24.0,0.,24.0,0.,24.0
1979-07-29 22:17:21.380 ,7,0,24.,24.0,0.,24.0,2.,24.0,0.,24.0
1979-07-29 22:17:45.380 ,7,1,30.,24.0,0.,24.0,1.,24.0,0.,24.0
1979-07-29 22:18:09.380 ,7,0,30.,24.0,0.,24.0,0.,24.0,0.,24.0
1979-07-29 22:18:33.380 ,6,1,18.,24.0,0.,24.0,1.,24.0,0.,24.0
1979-07-29 22:18:57.380 ,6,0,0.,24.0,0.,24.0,1.,24.0,0.,24.0
1979-07-29 22:19:21.380 ,5,1,0.,24.0,1.,24.0,2.,24.0,0.,24.0
1979-07-29 22:19:45.380 ,5,0,0.,24.0,0.,24.0,1.,24.0,0.,24.0
1979-07-29 22:20:09.380 ,4,1,0.,24.0,0.,24.0,2.,24.0,0.,24.0
1979-07-29 22:20:33.380 ,4,0,0.,24.0,0.,24.0,1.,24.0,0.,24.0
1979-07-29 22:20:57.380 ,3,1,0.,24.0,0.,24.0,0.,24.0,0.,24.0
1979-07-29 22:21:21.380 ,3,0,0.,24.0,0.,24.0,1.,24.0,0.,24.0
1979-07-29 22:21:45.380 ,2,1,0.,24.0,0.,24.0,0.,24.0,0.,24.0
1979-07-29 22:22:09.380 ,2,0,0.,24.0,1.,24.0,1.,24.0,0.,24.0
1979-07-29 22:22:33.380 ,1,1,0.,24.0,0.,24.0,1.,24.0,0.,24.0
1979-07-29 22:22:57.380 ,1,0,0.,24.0,0.,24.0,2.,24.0,0.,24.0
1979-07-29 22:23:21.380 ,0,1,0.,24.0,0.,24.0,2.,24.0,0.,24.0
1979-07-29 22:23:45.380 ,0,0,0.,24.0,0.,24.0,2.,24.0,0.,24.0
1979-07-29 22:24:09.380 ,0,1,0.,24.0,0.,24.0,2.,24.0,0.,24.0
1979-07-29 22:24:33.380 ,0,0,1.,24.0,0.,24.0,2.,24.0,0.,24.0
1979-07-29 22:24:57.380 ,1,1,0.,24.0,0.,24.0,3.,24.0,0.,24.0
1979-07-29 22:25:21.380 ,1,0,0.,24.0,0.,24.0,1.,24.0,0.,24.0
1979-07-29 22:25:45.380 ,2,1,1.,24.0,0.,24.0,2.,24.0,0.,24.0
1979-07-29 22:26:09.380 ,2,0,0.,24.0,0.,24.0,1.,24.0,0.,24.0
1979-07-29 22:26:33.380 ,3,1,0.,24.0,0.,24.0,0.,24.0,0.,24.0
1979-07-29 22:26:57.380 ,3,0,0.,24.0,0.,24.0,2.,24.0,0.,24.0
1979-07-29 22:27:21.380 ,4,1,0.,24.0,0.,24.0,0.,24.0,0.,24.0
1979-07-29 22:27:45.380 ,4,0,0.,24.0,0.,24.0,0.,24.0,0.,24.0
1979-07-29 22:28:09.380 ,5,1,0.,24.0,0.,24.0,0.,24.0,0.,24.0
1979-07-29 22:28:33.380 ,5,0,0.,24.0,0.,24.0,3.,24.0,0.,24.0
1979-07-29 22:28:57.380 ,6,1,0.,24.0,0.,24.0,3.,24.0,0.,24.0
1979-07-29 22:29:21.380 ,6,0,1.,24.0,0.,24.0,1.,24.0,0.,24.0
1979-07-29 22:29:45.380 ,7,1,7.,24.0,0.,24.0,1.,24.0,0.,24.0
1979-07-29 22:30:09.380 ,7,0,38.,24.0,0.,24.0,3.,24.0,0.,24.0
1979-07-29 22:30:33.380 ,7,1,30.,24.0,0.,24.0,1.,24.0,0.,24.0
1979-07-29 22:30:57.380 ,7,0,25.,24.0,0.,24.0,1.,24.0,0.,24.0
1979-07-29 22:31:21.380 ,6,1,26.,24.0,0.,24.0,3.,24.0,0.,24.0
1979-07-29 22:31:45.380 ,6,0,0.,24.0,0.,24.0,1.,24.0,0.,24.0
1979-07-29 22:32:09.380 ,5,1,0.,24.0,0.,24.0,1.,24.0,0.,24.0
1979-07-29 22:32:33.380 ,5,0,0.,24.0,0.,24.0,1.,24.0,0.,24.0
1979-07-29 22:32:57.380 ,4,1,0.,24.0,0.,24.0,3.,24.0,0.,24.0
1979-07-29 22:33:21.380 ,4,0,0.,24.0,0.,24.0,0.,24.0,0.,24.0
1979-07-29 22:33:45.380 ,3,1,0.,24.0,0.,24.0,1.,24.0,0.,24.0
1979-07-29 22:34:09.380 ,3,0,0.,24.0,0.,24.0,0.,24.0,0.,24.0
1979-07-29 22:34:33.380 ,2,1,0.,24.0,0.,24.0,0.,24.0,0.,24.0
1979-07-29 22:34:57.380 ,2,0,0.,24.0,0.,24.0,0.,24.0,0.,24.0
1979-07-29 22:35:21.380 ,1,1,0.,24.0,0.,24.0,2.,24.0,0.,24.0
1979-07-29 22:35:45.380 ,1,0,0.,24.0,0.,24.0,4.,24.0,0.,24.0
1979-07-29 22:36:09.380 ,0,1,0.,24.0,0.,24.0,3.,24.0,0.,24.0
1979-07-29 22:36:33.380 ,0,0,0.,24.0,0.,24.0,2.,24.0,0.,24.0
1979-07-29 22:36:57.380 ,0,1,1.,24.0,0.,24.0,1.,24.0,0.,24.0
1979-07-29 22:37:21.380 ,0,0,0.,24.0,0.,24.0,2.,24.0,0.,24.0
1979-07-29 22:37:45.380 ,1,1,0.,24.0,0.,24.0,0.,24.0,0.,24.0
1979-07-29 22:38:09.380 ,1,0,0.,24.0,0.,24.0,5.,24.0,0.,24.0
1979-07-29 22:38:33.380 ,0,0,0.,24.0,0.,24.0,2.,24.0,0.,24.0
1979-07-29 22:38:57.380 ,0,0,0.,24.0,0.,24.0,1.,24.0,0.,24.0
1979-07-29 22:39:21.380 ,3,1,0.,24.0,0.,24.0,2.,24.0,0.,24.0
1979-07-29 22:39:45.380 ,3,0,,0,,0,,0,,0
1979-07-29 22:40:09.380 ,4,1,0.,24.0,0.,24.0,2.,24.0,0.,24.0
1979-07-29 22:40:33.380 ,4,0,,0,,0,,0,,0
1979-07-29 22:40:57.380 ,5,1,0.,24.0,0.,24.0,1.,24.0,0.,24.0
1979-07-29 22:41:21.380 ,5,0,0.,24.0,0.,24.0,1.,24.0,0.,24.0
1979-07-29 22:41:45.380 ,6,1,1.,24.0,0.,24.0,2.,24.0,0.,24.0
1979-07-29 22:42:09.380 ,0,0,0.,24.0,0.,24.0,2.,24.0,0.,24.0
1979-07-29 22:42:38.780 ,7,0,7.,24.0,0.,24.0,0.,24.0,0.,24.0
1979-07-29 22:42:57.380 ,7,0,29.,24.0,0.,24.0,1.,24.0,0.,24.0
1979-07-29 22:43:21.380 ,0,0,13.,24.0,0.,24.0,1.,24.0,0.,24.0
1979-07-29 22:43:45.380 ,0,0,0.,24.0,0.,24.0,2.,24.0,0.,24.0
1979-07-29 22:44:09.380 ,0,0,0.,24.0,0.,24.0,2.,24.0,0.,24.0
1979-07-29 22:44:33.380 ,6,1,0.,24.0,0.,24.0,0.,24.0,0.,24.0
1979-07-29 22:44:57.380 ,5,1,20.,24.0,0.,24.0,0.,24.0,0.,24.0
1979-07-29 22:45:21.380 ,0,0,0.,24.0,0.,24.0,2.,24.0,0.,24.0
1979-07-29 22:45:45.380 ,0,0,0.,24.0,0.,24.0,1.,24.0,0.,24.0
1979-07-29 22:46:09.380 ,0,0,0.,24.0,0.,24.0,0.,24.0,0.,24.0
1979-07-29 22:46:33.980 ,0,0,17.,24.0,0.,24.0,1.,24.0,0.,24.0
1979-07-29 22:46:57.380 ,1,1,0.,24.0,0.,24.0,2.,24.0,0.,24.0
1979-07-29 22:47:21.380 ,2,1,,0,,0,,0,,0
1979-07-29 22:47:45.380 ,0,0,0.,24.0,0.,24.0,1.,24.0,0.,24.0
1979-07-29 22:48:09.380 ,0,0,25.,24.0,0.,24.0,2.,24.0,0.,24.0
1979-07-29 22:48:33.380 ,1,1,1.,24.0,0.,24.0,1.,24.0,0.,24.0
1979-07-29 22:48:58.580 ,2,1,0.,24.0,0.,24.0,1.,24.0,0.,24.0
1979-07-29 22:49:21.380 ,6,1,0.,24.0,0.,24.0,5.,24.0,0.,24.0
1979-07-29 22:49:45.380 ,5,1,13.,24.0,0.,24.0,1.,24.0,0.,24.0
1979-07-29 22:50:09.380 ,1,1,0.,24.0,0.,24.0,3.,24.0,0.,24.0
1979-07-29 22:50:33.380 ,0,0,0.,24.0,0.,24.0,0.,24.0,0.,24.0
1979-07-29 22:50:57.380 ,6,1,0.,24.0,0.,24.0,2.,24.0,0.,24.0
1979-07-29 22:51:21.380 ,5,1,19.,24.0,0.,24.0,2.,24.0,0.,24.0
1979-07-29 22:51:45.380 ,1,1,1.,24.0,0.,24.0,1.,24.0,0.,24.0
1979-07-29 22:52:09.380 ,0,0,0.,24.0,0.,24.0,0.,24.0,0.,24.0
1979-07-29 22:52:33.380 ,0,0,0.,24.0,0.,24.0,2.,24.0,0.,24.0
1979-07-29 22:52:57.380 ,5,1,13.,24.0,0.,24.0,2.,24.0,0.,24.0
1979-07-29 22:53:21.380 ,1,1,0.,24.0,0.,24.0,1.,24.0,0.,24.0
1979-07-29 22:53:45.380 ,0,0,,0,,0,,0,,0
1979-07-29 22:54:09.380 ,0,0,0.,24.0,0.,24.0,1.,24.0,0.,24.0
1979-07-29 22:54:33.380 ,5,1,16.,24.0,0.,24.0,1.,24.0,0.,24.0
1979-07-29 22:54:57.380 ,5,0,0.,24.0,0.,24.0,3.,24.0,0.,24.0
1979-07-29 22:55:22.580 ,4,1,0.,24.0,0.,24.0,2.,24.0,0.,24.0
1979-07-29 22:55:45.380 ,0,0,0.,24.0,0.,24.0,2.,24.0,0.,24.0
1979-07-29 22:56:09.380 ,0,0,0.,24.0,0.,24.0,1.,24.0,0.,24.0
1979-07-29 22:56:33.380 ,0,0,0.,24.0,0.,24.0,1.,24.0,0.,24.0
1979-07-29 22:56:57.380 ,2,1,0.,24.0,0.,24.0,1.,24.0,0.,24.0
1979-07-29 22:57:21.380 ,2,0,0.,24.0,0.,24.0,0.,24.0,0.,24.0
1979-07-29 22:57:45.380 ,1,1,0.,24.0,0.,24.0,1.,24.0,0.,24.0
1979-07-29 22:58:09.380 ,0,0,0.,24.0,0.,24.0,2.,24.0,0.,24.0
1979-07-29 22:58:33.380 ,0,0,0.,24.0,0.,24.0,0.,24.0,0.,24.0
1979-07-29 22:58:57.380 ,0,0,0.,24.0,0.,24.0,0.,24.0,0.,24.0
1979-07-29 22:59:21.380 ,0,1,0.,24.0,0.,24.0,2.,24.0,0.,24.0
1979-07-29 22:59:45.380 ,0,0,,0,,0,,0,,0
1979-07-29 23:00:09.380 ,1,1,0.,24.0,0.,24.0,1.,24.0,0.,24.0
1979-07-29 23:00:33.380 ,1,0,0.,24.0,1.,24.0,1.,24.0,0.,24.0
1979-07-29 23:01:08.180 ,2,1,0.,24.0,0.,24.0,1.,24.0,0.,24.0
1979-07-29 23:01:21.380 ,2,0,,0,,0,,0,,0
1979-07-29 23:01:45.380 ,0,0,0.,24.0,0.,24.0,2.,24.0,0.,24.0
1979-07-29 23:02:09.380 ,0,0,0.,24.0,0.,24.0,1.,24.0,0.,24.0
1979-07-29 23:02:33.380 ,4,1,0.,24.0,0.,24.0,0.,24.0,0.,24.0
1979-07-29 23:02:57.380 ,4,0,0.,24.0,0.,24.0,2.,24.0,0.,24.0
1979-07-29 23:03:21.380 ,5,1,,0,,0,,0,,0
1979-07-29 23:03:45.380 ,0,0,0.,24.0,0.,24.0,3.,24.0,0.,24.0
1979-07-29 23:04:09.380 ,0,0,0.,24.0,0.,24.0,3.,24.0,0.,24.0
1979-07-29 23:04:33.380 ,0,0,0.,24.0,0.,24.0,1.,24.0,0.,24.0
1979-07-29 23:04:57.380 ,7,1,6.,24.0,0.,24.0,2.,24.0,0.,24.0
1979-07-29 23:05:21.380 ,7,0,,0,,0,,0,,0
1979-07-29 23:05:45.380 ,7,1,25.,24.0,0.,24.0,2.,24.0,0.,24.0
1979-07-29 23:06:09.380 ,0,0,19.,24.0,0.,24.0,3.,24.0,0.,24.0
1979-07-29 23:06:33.980 ,6,1,16.,24.0,0.,24.0,2.,24.0,0.,24.0
1979-07-29 23:06:57.380 ,0,0,0.,24.0,0.,24.0,2.,24.0,0.,24.0
1979-07-29 23:07:21.380 ,5,1,,0,,0,,0,,0
1979-07-29 23:07:45.380 ,5,0,0.,24.0,0.,24.0,3.,24.0,0.,24.0
1979-07-29 23:08:09.380 ,4,1,0.,24.0,0.,24.0,5.,24.0,0.,24.0
1979-07-29 23:08:33.380 ,0,0,0.,24.0,1.,24.0,2.,24.0,0.,24.0
1979-07-29 23:08:57.980 ,3,1,1.,24.0,0.,24.0,2.,24.0,0.,24.0
1979-07-29 23:09:21.380 ,3,0,0.,24.0,0.,24.0,0.,24.0,0.,24.0
1979-07-29 23:09:45.380 ,2,1,0.,24.0,0.,24.0,2.,24.0,0.,24.0
1979-07-29 23:10:09.380 ,2,0,,0,,0,,0,,0
1979-07-29 23:10:33.380 ,0,0,0.,24.0,0.,24.0,0.,24.0,0.,24.0
1979-07-29 23:10:57.380 ,0,0,0.,24.0,0.,24.0,0.,24.0,0.,24.0
1979-07-29 23:11:21.380 ,0,1,0.,24.0,0.,24.0,0.,24.0,0.,24.0
1979-07-29 23:11:45.380 ,0,0,1.,24.0,0.,24.0,1.,24.0,0.,24.0
1979-07-29 23:12:09.380 ,0,1,0.,24.0,0.,24.0,1.,24.0,0.,24.0
1979-07-29 23:12:33.380 ,0,1,0.,24.0,0.,24.0,0.,24.0,0.,24.0
1979-07-29 23:12:57.380 ,1,1,0.,24.0,0.,24.0,2.,24.0,0.,24.0
1979-07-29 23:13:21.380 ,0,0,0.,24.0,0.,24.0,2.,24.0,0.,24.0
1979-07-29 23:13:45.380 ,2,1,0.,24.0,0.,24.0,2.,24.0,0.,24.0
1979-07-29 23:14:09.380 ,2,0,0.,24.0,0.,24.0,1.,24.0,0.,24.0
1979-07-29 23:14:33.380 ,3,1,0.,24.0,0.,24.0,1.,24.0,0.,24.0
1979-07-29 23:14:57.380 ,3,0,0.,24.0,0.,24.0,1.,24.0,0.,24.0
1979-07-29 23:15:21.380 ,4,1,0.,24.0,0.,24.0,2.,24.0,0.,24.0
1979-07-29 23:15:45.380 ,4,0,0.,24.0,0.,24.0,2.,24.0,0.,24.0
1979-07-29 23:16:09.380 ,5,1,0.,24.0,0.,24.0,0.,24.0,0.,24.0
1979-07-29 23:16:33.380 ,5,0,0.,24.0,0.,24.0,0.,24.0,0.,24.0
1979-07-29 23:16:57.380 ,6,0,,0,,0,,0,,0
1979-07-29 23:17:21.380 ,6,0,0.,24.0,0.,24.0,1.,24.0,0.,24.0
1979-07-29 23:17:45.380 ,7,1,5.,24.0,0.,24.0,2.,24.0,0.,24.0
1979-07-29 23:18:09.380 ,0,0,34.,24.0,0.,24.0,0.,24.0,0.,24.0
1979-07-29 23:18:33.380 ,0,0,28.,24.0,0.,24.0,0.,24.0,0.,24.0
1979-07-29 23:18:57.380 ,0,0,25.,24.0,0.,24.0,0.,24.0,0.,24.0
1979-07-29 23:19:21.380 ,6,1,19.,24.0,0.,24.0,1.,24.0,0.,24.0
1979-07-29 23:19:45.380 ,6,0,0.,24.0,0.,24.0,4.,24.0,0.,24.0
1979-07-29 23:20:09.380 ,5,1,0.,24.0,0.,24.0,1.,24.0,0.,24.0
1979-07-29 23:20:33.380 ,5,0,0.,24.0,0.,24.0,2.,24.0,0.,24.0
1979-07-29 23:20:57.380 ,0,0,0.,24.0,0.,24.0,2.,24.0,0.,24.0
1979-07-29 23:21:21.380 ,4,1,0.,24.0,0.,24.0,1.,24.0,0.,24.0
1979-07-29 23:21:45.380 ,3,1,0.,24.0,0.,24.0,0.,24.0,0.,24.0
1979-07-29 23:22:09.380 ,3,0,0.,24.0,0.,24.0,3.,24.0,0.,24.0
1979-07-29 23:22:33.380 ,0,0,0.,24.0,0.,24.0,2.,24.0,0.,24.0
1979-07-29 23:22:57.380 ,0,0,0.,24.0,0.,24.0,3.,24.0,0.,24.0
1979-07-29 23:23:21.380 ,0,0,0.,24.0,0.,24.0,0.,24.0,0.,24.0
1979-07-29 23:23:45.380 ,0,0,,0,,0,,0,,0
1979-07-29 23:24:09.380 ,0,1,0.,24.0,0.,24.0,1.,24.0,0.,24.0
1979-07-29 23:24:33.380 ,0,0,0.,24.0,0.,24.0,1.,24.0,0.,24.0
1979-07-29 23:24:57.380 ,0,1,0.,24.0,0.,24.0,0.,24.0,0.,24.0
1979-07-29 23:25:21.380 ,0,0,0.,24.0,0.,24.0,2.,24.0,0.,24.0
1979-07-29 23:25:45.380 ,1,1,1.,24.0,0.,24.0,3.,24.0,0.,24.0
1979-07-29 23:26:09.380 ,1,0,0.,24.0,0.,24.0,1.,24.0,0.,24.0
1979-07-29 23:26:33.380 ,2,1,0.,24.0,0.,24.0,2.,24.0,0.,24.0
1979-07-29 23:26:57.380 ,2,0,0.,24.0,0.,24.0,1.,24.0,0.,24.0
1979-07-29 23:27:21.380 ,3,1,0.,24.0,0.,24.0,1.,24.0,0.,24.0
1979-07-29 23:27:45.380 ,3,0,0.,24.0,0.,24.0,1.,24.0,0.,24.0
1979-07-29 23:28:09.380 ,4,1,0.,24.0,0.,24.0,2.,24.0,0.,24.0
1979-07-29 23:28:33.380 ,4,0,0.,24.0,0.,24.0,3.,24.0,0.,24.0
1979-07-29 23:28:57.380 ,5,1,0.,24.0,0.,24.0,2.,24.0,0.,24.0
1979-07-29 23:29:21.380 ,5,0,0.,24.0,0.,24.0,0.,24.0,0.,24.0
1979-07-29 23:29:45.380 ,6,1,0.,24.0,0.,24.0,1.,24.0,0.,24.0
1979-07-29 23:30:09.380 ,0,0,0.,24.0,0.,24.0,1.,24.0,0.,24.0
1979-07-29 23:30:33.980 ,7,0,7.,24.0,0.,24.0,3.,24.0,0.,24.0
1979-07-29 23:30:57.380 ,7,0,27.,24.0,0.,24.0,1.,24.0,0.,24.0
1979-07-29 23:31:21.380 ,0,0,18.,24.0,0.,24.0,4.,24.0,0.,24.0
1979-07-29 23:31:45.380 ,0,0,,0,,0,,0,,0
1979-07-29 23:32:09.380 ,2,1,0.,24.0,0.,24.0,1.,24.0,0.,24.0
1979-07-29 23:32:33.380 ,6,1,0.,24.0,0.,24.0,4.,24.0,0.,24.0
1979-07-29 23:32:57.380 ,5,1,15.,24.0,0.,24.0,1.,24.0,0.,24.0
1979-07-29 23:33:21.380 ,0,0,,0,,0,,0,,0
1979-07-29 23:33:45.980 ,2,1,0.,24.0,0.,24.0,1.,24.0,0.,24.0
1979-07-29 23:34:09.380 ,6,1,0.,24.0,0.,24.0,3.,24.0,0.,24.0
1979-07-29 23:34:33.380 ,0,0,17.,24.0,0.,24.0,1.,24.0,0.,24.0
1979-07-29 23:34:57.380 ,0,0,1.,24.0,0.,24.0,1.,24.0,0.,24.0
1979-07-29 23:35:21.380 ,2,1,0.,24.0,0.,24.0,2.,24.0,0.,24.0
1979-07-29 23:35:45.380 ,0,0,0.,24.0,0.,24.0,3.,24.0,0.,24.0
1979-07-29 23:36:57.980 ,0,0,,0,,0,,0,,0
1979-07-29 23:37:21.380 ,6,1,0.,24.0,0.,24.0,2.,24.0,0.,24.0